EIN402 EIDW-LIRF

Flight info

Callsign EIN402
Flight time 2h 43m
Altitude 37000
Route PESIT2J PESIT DCT BAKUR DCT GUBJE DCT DAVAZ DCT AVZAC DCT ICOSA DCT RUHUN DCT UNZIB DCT NUCHU DCT BOGNA UL612 OGULO DCT OKASI DCT OKEKO DCT MOU DCT MADIV DCT MOKIP DCT TUFTA DCT KOGAS DCT MEDAM DCT NITAM DCT MOGBO DCT ELB/N0448F380 DCT ELKAP
Aircraft A320/M-SDE3FGHIRWY/LB1

Departure

Time 2026-05-05 07:23
Airport Dublin Airport (EIDW)

Arrival

Time 2026-05-05 10:06
Airport Rome–Fiumicino Leonardo da Vinci International Airport (LIRF)
Time Latitude Longitude Altitude Speed Heading
2026-05-05 06:23 53.43297 -6.24928 222 ft 0 kts
2026-05-05 06:47 53.43296 -6.24928 221 ft 1 kts
2026-05-05 06:47 53.43280 -6.24931 223 ft 3 kts
2026-05-05 06:47 53.43263 -6.24934 222 ft 3 kts 16°
2026-05-05 06:48 53.43246 -6.24947 221 ft 3 kts 54°
2026-05-05 06:48 53.43238 -6.24976 221 ft 3 kts 88°
2026-05-05 06:48 53.43239 -6.25001 221 ft 1 kts 95°
2026-05-05 06:48 53.43239 -6.25008 222 ft 0 kts 95°
2026-05-05 06:53 53.43237 -6.24975 220 ft 11 kts 95°
2026-05-05 06:53 53.43229 -6.24782 219 ft 22 kts 96°
2026-05-05 06:53 53.43197 -6.24580 219 ft 10 kts 97°
2026-05-05 06:53 53.43196 -6.24508 218 ft 9 kts 83°
2026-05-05 06:54 53.43267 -6.24421 219 ft 9 kts 15°
2026-05-05 06:54 53.43295 -6.24386 218 ft 0 kts 34°
2026-05-05 06:56 53.43313 -6.24352 221 ft 15 kts 57°
2026-05-05 06:57 53.43334 -6.24114 211 ft 0 kts 93°
2026-05-05 06:57 53.43334 -6.24109 211 ft 0 kts 94°
2026-05-05 06:59 53.43334 -6.24108 211 ft 2 kts 94°
2026-05-05 07:04 53.43334 -6.24104 211 ft 4 kts 95°
2026-05-05 07:04 53.43331 -6.24049 210 ft 0 kts 96°
2026-05-05 07:05 53.43330 -6.24042 210 ft 0 kts 96°
2026-05-05 07:06 53.43329 -6.24026 219 ft 6 kts 98°
2026-05-05 07:06 53.43325 -6.23957 211 ft 0 kts 89°
2026-05-05 07:07 53.43329 -6.23916 210 ft 0 kts 74°
2026-05-05 07:08 53.43338 -6.23886 211 ft 0 kts 55°
2026-05-05 07:09 53.43350 -6.23875 209 ft 0 kts 19°
2026-05-05 07:11 53.43357 -6.23871 208 ft 0 kts 19°
2026-05-05 07:11 53.43359 -6.23870 208 ft 1 kts 14°
2026-05-05 07:11 53.43361 -6.23870 208 ft 0 kts 14°
2026-05-05 07:12 53.43387 -6.23862 213 ft 0 kts
2026-05-05 07:16 53.43413 -6.23864 210 ft 0 kts 353°
2026-05-05 07:20 53.43415 -6.23864 209 ft 0 kts 352°
2026-05-05 07:21 53.43419 -6.23865 215 ft 0 kts 350°
2026-05-05 07:21 53.43421 -6.23866 215 ft 4 kts 350°
2026-05-05 07:22 53.43485 -6.23973 206 ft 8 kts 285°
2026-05-05 07:22 53.43491 -6.24041 211 ft 20 kts 276°
2026-05-05 07:22 53.43534 -6.24707 222 ft 91 kts 278°
2026-05-05 07:22 53.43591 -6.26081 277 ft 135 kts 274°
2026-05-05 07:23 53.43570 -6.27560 1050 ft 122 kts 267°
2026-05-05 07:23 53.43446 -6.29032 1518 ft 139 kts 262°
2026-05-05 07:23 53.43206 -6.30622 2182 ft 139 kts 256°
2026-05-05 07:23 53.42913 -6.32323 2592 ft 166 kts 269°
2026-05-05 07:24 53.42938 -6.33685 2902 ft 187 kts 275°
2026-05-05 07:24 53.42636 -6.35931 3661 ft 214 kts 236°
2026-05-05 07:24 53.41404 -6.37394 4692 ft 228 kts 194°
2026-05-05 07:24 53.39819 -6.37179 5843 ft 235 kts 153°
2026-05-05 07:25 53.38633 -6.35318 6980 ft 239 kts 114°
2026-05-05 07:25 53.38315 -6.32531 7736 ft 262 kts 81°
2026-05-05 07:25 53.39047 -6.29542 8002 ft 302 kts 49°
2026-05-05 07:25 53.40829 -6.27294 8075 ft 343 kts 20°
2026-05-05 07:26 53.43278 -6.26617 8085 ft 375 kts 355°
2026-05-05 07:26 53.45846 -6.27846 8360 ft 389 kts 333°
2026-05-05 07:26 53.48203 -6.29887 9652 ft 383 kts 330°
2026-05-05 07:26 53.50283 -6.32826 9923 ft 398 kts 309°
2026-05-05 07:27 53.51996 -6.36388 11221 ft 387 kts 308°
2026-05-05 07:27 53.53459 -6.40326 11410 ft 410 kts 291°
2026-05-05 07:27 53.54249 -6.44896 12619 ft 400 kts 285°
2026-05-05 07:27 53.54563 -6.49427 14101 ft 389 kts 266°
2026-05-05 07:28 53.53838 -6.53779 15231 ft 390 kts 243°
2026-05-05 07:28 53.52136 -6.57325 16151 ft 395 kts 220°
2026-05-05 07:28 53.49687 -6.59483 16982 ft 402 kts 197°
2026-05-05 07:28 53.46894 -6.59861 17773 ft 410 kts 173°
2026-05-05 07:29 53.44187 -6.58376 18483 ft 416 kts 151°
2026-05-05 07:29 53.41773 -6.55649 19087 ft 420 kts 145°
2026-05-05 07:29 53.39389 -6.52820 19685 ft 422 kts 145°
2026-05-05 07:29 53.36981 -6.49962 20238 ft 425 kts 146°
2026-05-05 07:30 53.34434 -6.47468 20744 ft 426 kts 159°
2026-05-05 07:30 53.28884 -6.43809 21723 ft 431 kts 158°
2026-05-05 07:30 53.26127 -6.41763 22180 ft 434 kts 156°
2026-05-05 07:31 53.23396 -6.39613 22618 ft 436 kts 155°
2026-05-05 07:31 53.20647 -6.37395 23018 ft 440 kts 155°
2026-05-05 07:31 53.17862 -6.35152 23105 ft 449 kts 155°
2026-05-05 07:31 53.15011 -6.32889 23100 ft 459 kts 155°
2026-05-05 07:32 53.12092 -6.30608 23103 ft 468 kts 156°
2026-05-05 07:32 53.09116 -6.28311 23095 ft 475 kts 156°
2026-05-05 07:32 53.06099 -6.26006 23094 ft 480 kts 156°
2026-05-05 07:32 53.03052 -6.23686 23084 ft 484 kts 156°
2026-05-05 07:33 53.00007 -6.21367 23082 ft 486 kts 156°
2026-05-05 07:33 52.96922 -6.19024 23086 ft 488 kts 156°
2026-05-05 07:33 52.93839 -6.16679 23081 ft 490 kts 156°
2026-05-05 07:33 52.90739 -6.14310 23075 ft 490 kts 156°
2026-05-05 07:34 52.87635 -6.11924 23140 ft 489 kts 155°
2026-05-05 07:34 52.84612 -6.09589 24084 ft 470 kts 155°
2026-05-05 07:34 52.81701 -6.07342 24970 ft 457 kts 155°
2026-05-05 07:34 52.78825 -6.05131 25457 ft 454 kts 155°
2026-05-05 07:35 52.75956 -6.02938 25803 ft 455 kts 155°
2026-05-05 07:35 52.73083 -6.00750 26114 ft 456 kts 155°
2026-05-05 07:35 52.70193 -5.98551 26399 ft 458 kts 155°
2026-05-05 07:35 52.67303 -5.96355 26672 ft 459 kts 155°
2026-05-05 07:36 52.64395 -5.94148 26922 ft 461 kts 155°
2026-05-05 07:36 52.61474 -5.91931 27181 ft 463 kts 155°
2026-05-05 07:36 52.58547 -5.89714 27427 ft 464 kts 155°
2026-05-05 07:36 52.55606 -5.87493 27644 ft 466 kts 154°
2026-05-05 07:37 52.52665 -5.85273 27934 ft 465 kts 154°
2026-05-05 07:37 52.49724 -5.83053 28261 ft 465 kts 154°
2026-05-05 07:37 52.46789 -5.80840 28583 ft 464 kts 154°
2026-05-05 07:37 52.43856 -5.78632 28902 ft 463 kts 154°
2026-05-05 07:38 52.40927 -5.76441 29225 ft 462 kts 155°
2026-05-05 07:38 52.37899 -5.74676 29559 ft 463 kts 162°
2026-05-05 07:38 52.34812 -5.73182 29891 ft 462 kts 162°
2026-05-05 07:38 52.31728 -5.71688 30208 ft 462 kts 162°
2026-05-05 07:39 52.28657 -5.70204 30482 ft 461 kts 162°
2026-05-05 07:39 52.25574 -5.68715 30753 ft 461 kts 162°
2026-05-05 07:39 52.22557 -5.66956 31019 ft 460 kts 156°
2026-05-05 07:39 52.19604 -5.64953 31286 ft 459 kts 156°
2026-05-05 07:40 52.16652 -5.62958 31555 ft 459 kts 156°
2026-05-05 07:40 52.13698 -5.60968 31831 ft 459 kts 156°
2026-05-05 07:40 52.10747 -5.58986 32103 ft 459 kts 156°
2026-05-05 07:40 52.07798 -5.57010 32381 ft 459 kts 156°
2026-05-05 07:41 52.04840 -5.55025 32667 ft 458 kts 155°
2026-05-05 07:41 52.01908 -5.53027 32934 ft 458 kts 155°
2026-05-05 07:41 51.98985 -5.50958 33212 ft 457 kts 154°
2026-05-05 07:41 51.96086 -5.48857 33486 ft 457 kts 153°
2026-05-05 07:42 51.93279 -5.46620 33768 ft 454 kts 147°
2026-05-05 07:42 51.90691 -5.43720 34048 ft 451 kts 138°
2026-05-05 07:42 51.88429 -5.40249 34285 ft 447 kts 129°
2026-05-05 07:42 51.86537 -5.36282 34518 ft 444 kts 120°
2026-05-05 07:43 51.85051 -5.31905 34729 ft 442 kts 112°
2026-05-05 07:43 51.83754 -5.27387 34947 ft 442 kts 113°
2026-05-05 07:43 51.82451 -5.22877 35156 ft 443 kts 113°
2026-05-05 07:43 51.81144 -5.18375 35356 ft 443 kts 113°
2026-05-05 07:44 51.79831 -5.13872 35555 ft 443 kts 114°
2026-05-05 07:44 51.78525 -5.09365 35739 ft 443 kts 111°
2026-05-05 07:44 51.77518 -5.04678 35937 ft 441 kts 103°
2026-05-05 07:44 51.76906 -4.99838 36106 ft 441 kts 99°
2026-05-05 07:45 51.76340 -4.94957 36283 ft 441 kts 99°
2026-05-05 07:45 51.75769 -4.90105 36448 ft 441 kts 99°
2026-05-05 07:45 51.75188 -4.85234 36631 ft 442 kts 100°
2026-05-05 07:45 51.74601 -4.80359 36799 ft 442 kts 100°
2026-05-05 07:46 51.74012 -4.75494 36981 ft 442 kts 100°
2026-05-05 07:46 51.73422 -4.70615 37048 ft 444 kts 100°
2026-05-05 07:46 51.72233 -4.60761 37052 ft 451 kts 100°
2026-05-05 07:47 51.71014 -4.50776 37049 ft 455 kts 101°
2026-05-05 07:47 51.69771 -4.40715 37045 ft 459 kts 101°
2026-05-05 07:48 51.68519 -4.30601 37044 ft 461 kts 101°
2026-05-05 07:48 51.67262 -4.20520 37045 ft 463 kts 101°
2026-05-05 07:49 51.65988 -4.10356 37040 ft 464 kts 101°
2026-05-05 07:49 51.64694 -4.00157 37036 ft 465 kts 101°
2026-05-05 07:50 51.63388 -3.89962 37039 ft 466 kts 101°
2026-05-05 07:50 51.62083 -3.79801 37037 ft 467 kts 101°
2026-05-05 07:51 51.60764 -3.69559 37034 ft 468 kts 102°
2026-05-05 07:51 51.59463 -3.59281 37029 ft 469 kts 98°
2026-05-05 07:52 51.58826 -3.48854 37034 ft 469 kts 95°
2026-05-05 07:52 51.58220 -3.38385 37033 ft 470 kts 96°
2026-05-05 07:53 51.57605 -3.27898 37046 ft 471 kts 96°
2026-05-05 07:53 51.56976 -3.17396 37046 ft 472 kts 96°
2026-05-05 07:54 51.56331 -3.06880 37011 ft 473 kts 96°
2026-05-05 07:54 51.55675 -2.96362 37016 ft 474 kts 96°
2026-05-05 07:55 51.55008 -2.85814 37020 ft 475 kts 96°
2026-05-05 07:55 51.54334 -2.75250 37028 ft 475 kts 97°
2026-05-05 07:56 51.53651 -2.64700 37027 ft 476 kts 97°
2026-05-05 07:56 51.52948 -2.54116 37031 ft 476 kts 97°
2026-05-05 07:57 51.52241 -2.43520 37032 ft 477 kts 97°
2026-05-05 07:57 51.51532 -2.32913 37034 ft 478 kts 97°
2026-05-05 07:58 51.50812 -2.22372 37032 ft 471 kts 97°
2026-05-05 07:58 51.50077 -2.11907 37029 ft 470 kts 98°
2026-05-05 07:59 51.49347 -2.01592 37026 ft 460 kts 98°
2026-05-05 07:59 51.48629 -1.91469 37028 ft 455 kts 97°
2026-05-05 08:00 51.47906 -1.81404 37027 ft 454 kts 98°
2026-05-05 08:00 51.46864 -1.71443 37023 ft 452 kts 109°
2026-05-05 08:01 51.44097 -1.62482 37022 ft 449 kts 127°
2026-05-05 08:01 51.40125 -1.54753 37009 ft 448 kts 131°
2026-05-05 08:02 51.36782 -1.48413 37003 ft 449 kts 131°
2026-05-05 08:02 51.32742 -1.40768 37001 ft 449 kts 131°
2026-05-05 08:03 51.28743 -1.33218 36995 ft 450 kts 131°
2026-05-05 08:03 51.24692 -1.25579 36995 ft 450 kts 131°
2026-05-05 08:04 51.20633 -1.17962 36994 ft 451 kts 131°
2026-05-05 08:04 51.16564 -1.10358 36997 ft 451 kts 131°
2026-05-05 08:05 51.12504 -1.02775 36996 ft 452 kts 131°
2026-05-05 08:05 51.08419 -0.95166 36994 ft 453 kts 131°
2026-05-05 08:06 51.04316 -0.87558 36991 ft 453 kts 132°
2026-05-05 08:06 51.00202 -0.79953 36985 ft 454 kts 132°
2026-05-05 08:07 50.96048 -0.72312 36979 ft 454 kts 132°
2026-05-05 08:07 50.91921 -0.64721 36976 ft 454 kts 132°
2026-05-05 08:08 50.87814 -0.57184 36971 ft 455 kts 132°
2026-05-05 08:08 50.83755 -0.49778 36972 ft 455 kts 133°
2026-05-05 08:09 50.79593 -0.42220 36976 ft 455 kts 133°
2026-05-05 08:09 50.75405 -0.34612 36982 ft 455 kts 133°
2026-05-05 08:10 50.71256 -0.27151 36981 ft 454 kts 136°
2026-05-05 08:10 50.66311 -0.21068 36986 ft 450 kts 148°
2026-05-05 08:11 50.61062 -0.15585 36983 ft 450 kts 148°
2026-05-05 08:11 50.55813 -0.10104 36982 ft 449 kts 148°
2026-05-05 08:12 50.50566 -0.04628 36981 ft 449 kts 148°
2026-05-05 08:12 50.45417 0.00719 36982 ft 449 kts 148°
2026-05-05 08:13 50.40183 0.06149 36982 ft 448 kts 148°
2026-05-05 08:13 50.35016 0.11498 36975 ft 447 kts 149°
2026-05-05 08:14 50.29815 0.16862 36973 ft 447 kts 149°
2026-05-05 08:14 50.24620 0.22191 36975 ft 446 kts 149°
2026-05-05 08:15 50.19428 0.27508 36974 ft 446 kts 149°
2026-05-05 08:15 50.14242 0.32837 36966 ft 445 kts 149°
2026-05-05 08:16 50.09084 0.38141 36966 ft 444 kts 149°
2026-05-05 08:16 50.03884 0.43470 36968 ft 444 kts 149°
2026-05-05 08:17 49.98718 0.48742 36956 ft 443 kts 149°
2026-05-05 08:17 49.93563 0.53988 36958 ft 442 kts 149°
2026-05-05 08:18 49.88413 0.59209 36954 ft 441 kts 149°
2026-05-05 08:18 49.83444 0.64814 36952 ft 442 kts 143°
2026-05-05 08:19 49.78683 0.70836 36945 ft 441 kts 143°
2026-05-05 08:19 49.73917 0.76809 36950 ft 441 kts 143°
2026-05-05 08:20 49.69151 0.82770 36941 ft 440 kts 143°
2026-05-05 08:20 49.64392 0.88704 36939 ft 439 kts 143°
2026-05-05 08:21 49.59643 0.94613 36942 ft 439 kts 143°
2026-05-05 08:21 49.54890 1.00520 36941 ft 438 kts 143°
2026-05-05 08:22 49.50153 1.06423 36926 ft 438 kts 143°
2026-05-05 08:22 49.45409 1.12303 36929 ft 438 kts 143°
2026-05-05 08:23 49.40657 1.18155 36938 ft 437 kts 143°
2026-05-05 08:23 49.35912 1.23991 36937 ft 437 kts 143°
2026-05-05 08:24 49.31168 1.29830 36936 ft 437 kts 143°
2026-05-05 08:24 49.26415 1.35653 36928 ft 437 kts 143°
2026-05-05 08:25 49.21659 1.41460 36920 ft 437 kts 144°
2026-05-05 08:25 49.16938 1.47209 36900 ft 437 kts 144°
2026-05-05 08:26 49.12156 1.53036 36900 ft 436 kts 144°
2026-05-05 08:26 49.07438 1.58757 36894 ft 436 kts 144°
2026-05-05 08:27 49.02654 1.64532 36890 ft 436 kts 144°
2026-05-05 08:27 48.97891 1.70269 36892 ft 436 kts 144°
2026-05-05 08:28 48.93159 1.75963 36889 ft 436 kts 144°
2026-05-05 08:28 48.88367 1.81720 36885 ft 436 kts 144°
2026-05-05 08:29 48.83603 1.87434 36873 ft 436 kts 144°
2026-05-05 08:30 48.78028 1.94090 36871 ft 436 kts 144°
2026-05-05 08:30 48.73476 1.99522 36873 ft 436 kts 144°
2026-05-05 08:31 48.68978 2.04871 36874 ft 436 kts 144°
2026-05-05 08:31 48.64206 2.10520 36872 ft 436 kts 144°
2026-05-05 08:32 48.59418 2.16168 36870 ft 436 kts 144°
2026-05-05 08:32 48.54856 2.22218 36863 ft 438 kts 137°
2026-05-05 08:33 48.50593 2.28723 36862 ft 438 kts 137°
2026-05-05 08:33 48.46273 2.35285 36866 ft 439 kts 137°
2026-05-05 08:34 48.41973 2.41779 36864 ft 439 kts 137°
2026-05-05 08:34 48.37631 2.48318 36867 ft 440 kts 137°
2026-05-05 08:35 48.33310 2.54814 36867 ft 440 kts 137°
2026-05-05 08:35 48.28912 2.61155 36839 ft 436 kts 144°
2026-05-05 08:36 48.23684 2.65661 36837 ft 433 kts 157°
2026-05-05 08:36 48.18247 2.69571 36832 ft 435 kts 154°
2026-05-05 08:37 48.12925 2.73923 36830 ft 436 kts 152°
2026-05-05 08:37 48.07621 2.78227 36831 ft 436 kts 158°
2026-05-05 08:38 48.02052 2.81814 36831 ft 436 kts 159°
2026-05-05 08:38 47.96465 2.85341 36830 ft 436 kts 159°
2026-05-05 08:39 47.90865 2.88878 36838 ft 437 kts 159°
2026-05-05 08:39 47.85220 2.92452 36844 ft 438 kts 159°
2026-05-05 08:40 47.79624 2.95990 36837 ft 437 kts 159°
2026-05-05 08:40 47.74026 2.99519 36843 ft 437 kts 159°
2026-05-05 08:41 47.68431 3.03030 36847 ft 437 kts 159°
2026-05-05 08:41 47.62841 3.06542 36851 ft 437 kts 159°
2026-05-05 08:42 47.57242 3.10044 36852 ft 437 kts 159°
2026-05-05 08:42 47.51684 3.13515 36851 ft 436 kts 159°
2026-05-05 08:43 47.46049 3.17018 36846 ft 436 kts 159°
2026-05-05 08:43 47.40490 3.20469 36845 ft 436 kts 159°
2026-05-05 08:44 47.34900 3.23934 36846 ft 436 kts 159°
2026-05-05 08:44 47.29310 3.27390 36856 ft 436 kts 159°
2026-05-05 08:45 47.23705 3.30852 36866 ft 436 kts 160°
2026-05-05 08:45 47.18111 3.34301 36863 ft 435 kts 160°
2026-05-05 08:46 47.12529 3.37724 36863 ft 435 kts 160°
2026-05-05 08:46 47.06941 3.41135 36863 ft 435 kts 160°
2026-05-05 08:47 47.01357 3.44554 36867 ft 435 kts 160°
2026-05-05 08:47 46.95771 3.47967 36864 ft 435 kts 160°
2026-05-05 08:48 46.90186 3.51358 36867 ft 434 kts 160°
2026-05-05 08:48 46.84609 3.54749 36871 ft 434 kts 160°
2026-05-05 08:49 46.79016 3.58131 36875 ft 434 kts 160°
2026-05-05 08:49 46.73754 3.62432 36873 ft 440 kts 142°
2026-05-05 08:49 46.71631 3.65654 36868 ft 444 kts 130°
2026-05-05 08:50 46.69982 3.69493 36863 ft 450 kts 119°
2026-05-05 08:50 46.68890 3.73780 36862 ft 455 kts 108°
2026-05-05 08:50 46.68131 3.78268 36859 ft 456 kts 107°
2026-05-05 08:51 46.66607 3.87243 36868 ft 457 kts 108°
2026-05-05 08:51 46.65064 3.96230 36867 ft 457 kts 108°
2026-05-05 08:52 46.63509 4.05200 36872 ft 458 kts 108°
2026-05-05 08:52 46.61941 4.14183 36875 ft 458 kts 108°
2026-05-05 08:53 46.60372 4.23163 36876 ft 458 kts 108°
2026-05-05 08:53 46.58800 4.32142 36874 ft 458 kts 108°
2026-05-05 08:54 46.57217 4.41121 36878 ft 459 kts 108°
2026-05-05 08:54 46.55621 4.50101 36880 ft 459 kts 108°
2026-05-05 08:55 46.54018 4.59070 36878 ft 459 kts 108°
2026-05-05 08:55 46.52405 4.68054 36880 ft 459 kts 109°
2026-05-05 08:56 46.50782 4.77027 36883 ft 460 kts 109°
2026-05-05 08:56 46.49154 4.86002 36884 ft 460 kts 109°
2026-05-05 08:57 46.47522 4.94990 36881 ft 460 kts 109°
2026-05-05 08:57 46.45888 5.03966 36882 ft 461 kts 109°
2026-05-05 08:58 46.44238 5.12947 36885 ft 461 kts 109°
2026-05-05 08:58 46.42578 5.21930 36885 ft 461 kts 109°
2026-05-05 08:59 46.40915 5.30908 36882 ft 461 kts 109°
2026-05-05 08:59 46.39047 5.39771 36881 ft 456 kts 118°
2026-05-05 09:00 46.35709 5.47394 36884 ft 445 kts 135°
2026-05-05 09:00 46.31676 5.54206 36890 ft 446 kts 135°
2026-05-05 09:01 46.27653 5.61027 36896 ft 446 kts 135°
2026-05-05 09:01 46.23614 5.67853 36892 ft 446 kts 135°
2026-05-05 09:02 46.19598 5.74624 36911 ft 447 kts 135°
2026-05-05 09:02 46.15550 5.81426 36901 ft 447 kts 135°
2026-05-05 09:03 46.11493 5.88217 36913 ft 447 kts 135°
2026-05-05 09:03 46.07433 5.95010 36905 ft 447 kts 135°
2026-05-05 09:04 46.03366 6.01803 36926 ft 448 kts 135°
2026-05-05 09:04 45.99296 6.08571 36938 ft 448 kts 135°
2026-05-05 09:05 45.95210 6.15347 36940 ft 448 kts 136°
2026-05-05 09:05 45.91121 6.22112 36937 ft 448 kts 136°
2026-05-05 09:06 45.87027 6.28873 36930 ft 448 kts 136°
2026-05-05 09:06 45.82954 6.35594 36920 ft 449 kts 136°
2026-05-05 09:07 45.78386 6.41596 36910 ft 440 kts 149°
2026-05-05 09:07 45.73395 6.46675 36898 ft 440 kts 149°
2026-05-05 09:08 45.68388 6.51759 36894 ft 441 kts 149°
2026-05-05 09:08 45.63390 6.56834 36890 ft 441 kts 149°
2026-05-05 09:09 45.59222 6.61062 36893 ft 442 kts 149°
2026-05-05 09:09 45.54202 6.66141 36897 ft 442 kts 149°
2026-05-05 09:10 45.49181 6.71217 36906 ft 443 kts 150°
2026-05-05 09:10 45.44142 6.76285 36927 ft 443 kts 150°
2026-05-05 09:11 45.39100 6.81347 36939 ft 444 kts 150°
2026-05-05 09:11 45.34056 6.86397 36944 ft 443 kts 150°
2026-05-05 09:12 45.29000 6.91446 36953 ft 444 kts 150°
2026-05-05 09:12 45.24221 6.97060 36964 ft 451 kts 141°
2026-05-05 09:13 45.19720 7.03282 36969 ft 452 kts 141°
2026-05-05 09:13 45.15179 7.09522 36964 ft 452 kts 141°
2026-05-05 09:14 45.10747 7.15756 36954 ft 455 kts 136°
2026-05-05 09:14 45.06977 7.23114 36958 ft 461 kts 130°
2026-05-05 09:15 45.03289 7.30539 36956 ft 461 kts 130°
2026-05-05 09:15 44.99596 7.37942 36963 ft 462 kts 131°
2026-05-05 09:16 44.95410 7.44670 37003 ft 453 kts 141°
2026-05-05 09:16 44.90926 7.50923 36995 ft 454 kts 141°
2026-05-05 09:17 44.86437 7.57210 36991 ft 455 kts 141°
2026-05-05 09:17 44.81945 7.63482 36981 ft 455 kts 141°
2026-05-05 09:18 44.77431 7.69753 36974 ft 456 kts 141°
2026-05-05 09:18 44.72916 7.76019 36977 ft 456 kts 141°
2026-05-05 09:19 44.68382 7.82290 36974 ft 457 kts 141°
2026-05-05 09:19 44.63847 7.88552 36979 ft 458 kts 142°
2026-05-05 09:20 44.59298 7.94819 36975 ft 458 kts 142°
2026-05-05 09:20 44.54738 8.01073 36970 ft 459 kts 142°
2026-05-05 09:21 44.50166 8.07343 36971 ft 459 kts 142°
2026-05-05 09:21 44.45601 8.13589 36968 ft 460 kts 142°
2026-05-05 09:22 44.41010 8.19843 36972 ft 460 kts 142°
2026-05-05 09:22 44.36419 8.26085 36965 ft 461 kts 142°
2026-05-05 09:23 44.31828 8.32327 36966 ft 461 kts 142°
2026-05-05 09:23 44.27228 8.38561 36967 ft 461 kts 142°
2026-05-05 09:24 44.22616 8.44789 36961 ft 462 kts 142°
2026-05-05 09:24 44.18001 8.51022 36958 ft 462 kts 142°
2026-05-05 09:25 44.13381 8.57247 36948 ft 462 kts 142°
2026-05-05 09:25 44.08742 8.63459 36945 ft 463 kts 142°
2026-05-05 09:26 44.04093 8.69680 36947 ft 464 kts 142°
2026-05-05 09:26 43.99451 8.75889 36942 ft 464 kts 142°
2026-05-05 09:27 43.94794 8.82105 36941 ft 465 kts 142°
2026-05-05 09:27 43.90129 8.88321 36944 ft 465 kts 142°
2026-05-05 09:28 43.85449 8.94523 36943 ft 466 kts 142°
2026-05-05 09:28 43.80766 9.00727 36942 ft 466 kts 142°
2026-05-05 09:29 43.76070 9.06933 36946 ft 467 kts 142°
2026-05-05 09:29 43.71375 9.13125 36946 ft 467 kts 142°
2026-05-05 09:30 43.66694 9.19288 36946 ft 467 kts 142°
2026-05-05 09:30 43.61977 9.25475 36948 ft 468 kts 142°
2026-05-05 09:31 43.57227 9.31693 36954 ft 468 kts 142°
2026-05-05 09:31 43.52500 9.37867 36955 ft 468 kts 142°
2026-05-05 09:32 43.47764 9.44034 36955 ft 469 kts 142°
2026-05-05 09:32 43.43023 9.50180 36957 ft 469 kts 142°
2026-05-05 09:33 43.38311 9.56306 36957 ft 470 kts 142°
2026-05-05 09:33 43.33549 9.62478 36970 ft 470 kts 142°
2026-05-05 09:34 43.28759 9.68667 36969 ft 470 kts 142°
2026-05-05 09:34 43.23980 9.74818 36973 ft 471 kts 142°
2026-05-05 09:35 43.19194 9.80961 36960 ft 471 kts 142°
2026-05-05 09:35 43.12054 9.90120 36969 ft 471 kts 142°
2026-05-05 09:36 43.07398 9.96093 36972 ft 471 kts 142°
2026-05-05 09:36 43.02576 10.02251 36974 ft 471 kts 142°
2026-05-05 09:37 42.97813 10.08305 36974 ft 471 kts 142°
2026-05-05 09:37 42.92979 10.14427 36978 ft 471 kts 142°
2026-05-05 09:38 42.88204 10.20469 36985 ft 471 kts 142°
2026-05-05 09:38 42.83379 10.26578 36986 ft 471 kts 142°
2026-05-05 09:39 42.78572 10.32680 36982 ft 472 kts 140°
2026-05-05 09:39 42.74671 10.40006 36987 ft 484 kts 119°
2026-05-05 09:40 42.72752 10.48820 36985 ft 492 kts 98°
2026-05-05 09:40 42.72373 10.58123 37006 ft 492 kts 98°
2026-05-05 09:41 42.70653 10.67053 36269 ft 492 kts 117°
2026-05-05 09:41 42.69055 10.71168 35213 ft 492 kts 127°
2026-05-05 09:41 42.67209 10.75070 34565 ft 487 kts 127°
2026-05-05 09:42 42.65418 10.78937 34047 ft 481 kts 126°
2026-05-05 09:42 42.63662 10.82780 33420 ft 477 kts 126°
2026-05-05 09:42 42.61929 10.86589 32819 ft 472 kts 126°
2026-05-05 09:42 42.60208 10.90364 32229 ft 468 kts 126°
2026-05-05 09:43 42.58495 10.94111 31651 ft 464 kts 126°
2026-05-05 09:43 42.56798 10.97807 31072 ft 461 kts 126°
2026-05-05 09:43 42.55100 11.01490 30526 ft 457 kts 126°
2026-05-05 09:43 42.53413 11.05132 29971 ft 454 kts 126°
2026-05-05 09:44 42.52944 11.06140 29809 ft 453 kts 127°
2026-05-05 09:44 42.52116 11.07947 29511 ft 451 kts 126°
2026-05-05 09:44 42.50848 11.10704 29072 ft 448 kts 126°
2026-05-05 09:44 42.49155 11.14356 28491 ft 443 kts 126°
2026-05-05 09:45 42.47515 11.17870 27951 ft 439 kts 127°
2026-05-05 09:45 42.45887 11.21341 27443 ft 435 kts 126°
2026-05-05 09:45 42.44489 11.24966 26943 ft 436 kts 114°
2026-05-05 09:45 42.43667 11.28917 26454 ft 436 kts 101°
2026-05-05 09:46 42.43220 11.32953 25957 ft 433 kts 100°
2026-05-05 09:46 42.42779 11.36975 25479 ft 430 kts 100°
2026-05-05 09:46 42.42338 11.40957 25021 ft 426 kts 101°
2026-05-05 09:46 42.41895 11.44901 24735 ft 419 kts 101°
2026-05-05 09:47 42.41505 11.48345 24624 ft 407 kts 101°
2026-05-05 09:47 42.41081 11.52069 24438 ft 397 kts 101°
2026-05-05 09:47 42.40661 11.55747 24094 ft 392 kts 101°
2026-05-05 09:47 42.40207 11.59370 23701 ft 388 kts 107°
2026-05-05 09:48 42.39142 11.62684 23268 ft 376 kts 128°
2026-05-05 09:48 42.37426 11.65267 22802 ft 364 kts 146°
2026-05-05 09:48 42.35309 11.67024 22343 ft 352 kts 162°
2026-05-05 09:48 42.33003 11.67914 21898 ft 341 kts 178°
2026-05-05 09:49 42.30674 11.67947 21456 ft 331 kts 193°
2026-05-05 09:49 42.28481 11.67175 21029 ft 322 kts 207°
2026-05-05 09:49 42.26556 11.65723 20618 ft 315 kts 220°
2026-05-05 09:49 42.24984 11.63714 20209 ft 309 kts 233°
2026-05-05 09:50 42.23843 11.61280 19794 ft 306 kts 246°
2026-05-05 09:50 42.23182 11.58581 19504 ft 301 kts 258°
2026-05-05 09:50 42.23012 11.55811 19345 ft 292 kts 270°
2026-05-05 09:50 42.23167 11.53170 19184 ft 276 kts 275°
2026-05-05 09:51 42.23657 11.50697 18802 ft 272 kts 289°
2026-05-05 09:51 42.24132 11.49404 18531 ft 273 kts 296°
2026-05-05 09:51 42.25254 11.47329 17997 ft 276 kts 308°
2026-05-05 09:51 42.26680 11.45585 17458 ft 279 kts 319°
2026-05-05 09:52 42.28364 11.44273 17054 ft 281 kts 332°
2026-05-05 09:52 42.30251 11.43483 17066 ft 289 kts 344°
2026-05-05 09:52 42.32276 11.43271 17067 ft 296 kts 358°
2026-05-05 09:52 42.34333 11.43718 17073 ft 304 kts 13°
2026-05-05 09:53 42.36307 11.44861 17072 ft 308 kts 28°
2026-05-05 09:53 42.37999 11.46604 17072 ft 312 kts 43°
2026-05-05 09:53 42.39355 11.48898 17070 ft 314 kts 59°
2026-05-05 09:53 42.40250 11.51585 17075 ft 314 kts 75°
2026-05-05 09:54 42.40629 11.54514 17077 ft 312 kts 90°
2026-05-05 09:54 42.40372 11.57384 17023 ft 304 kts 117°
2026-05-05 09:54 42.39181 11.59635 16808 ft 291 kts 149°
2026-05-05 09:54 42.37433 11.60862 16531 ft 280 kts 167°
2026-05-05 09:55 42.35568 11.61542 16227 ft 277 kts 173°
2026-05-05 09:55 42.33685 11.62082 15942 ft 276 kts 173°
2026-05-05 09:55 42.31811 11.62657 15696 ft 276 kts 172°
2026-05-05 09:55 42.29948 11.63319 15447 ft 277 kts 169°
2026-05-05 09:56 42.28110 11.64067 15167 ft 278 kts 166°
2026-05-05 09:56 42.26423 11.65385 14600 ft 298 kts 140°
2026-05-05 09:56 42.25226 11.67659 14470 ft 297 kts 121°
2026-05-05 09:56 42.24301 11.70107 14123 ft 291 kts 121°
2026-05-05 09:57 42.23403 11.72541 13669 ft 288 kts 120°
2026-05-05 09:57 42.22554 11.74871 13202 ft 287 kts 120°
2026-05-05 09:57 42.21667 11.77309 12396 ft 296 kts 120°
2026-05-05 09:57 42.20758 11.79792 11871 ft 294 kts 120°
2026-05-05 09:58 42.19876 11.82208 11617 ft 282 kts 120°
2026-05-05 09:58 42.19018 11.84555 11193 ft 277 kts 121°
2026-05-05 09:58 42.18137 11.86956 10725 ft 275 kts 121°
2026-05-05 09:58 42.17319 11.89178 10266 ft 273 kts 121°
2026-05-05 09:59 42.16468 11.91484 9764 ft 271 kts 120°
2026-05-05 09:59 42.15637 11.93738 9095 ft 275 kts 120°
2026-05-05 09:59 42.14800 11.96005 8741 ft 266 kts 120°
2026-05-05 09:59 42.13976 11.98244 8314 ft 262 kts 120°
2026-05-05 10:00 42.13168 12.00433 7827 ft 259 kts 121°
2026-05-05 10:00 42.12371 12.02593 7319 ft 256 kts 120°
2026-05-05 10:00 42.11446 12.04597 6814 ft 249 kts 134°
2026-05-05 10:00 42.10296 12.06297 6280 ft 247 kts 137°
2026-05-05 10:01 42.09102 12.08030 5595 ft 253 kts 136°
2026-05-05 10:01 42.07899 12.09785 4917 ft 256 kts 137°
2026-05-05 10:01 42.06689 12.11553 4233 ft 258 kts 136°
2026-05-05 10:01 42.05500 12.13298 3895 ft 246 kts 137°
2026-05-05 10:02 42.04382 12.14943 3747 ft 230 kts 137°
2026-05-05 10:02 42.03308 12.16516 3640 ft 228 kts 137°
2026-05-05 10:02 42.02236 12.18077 3542 ft 226 kts 139°
2026-05-05 10:02 42.00973 12.19260 3359 ft 219 kts 163°
2026-05-05 10:03 41.99536 12.19885 3098 ft 217 kts 166°
2026-05-05 10:03 41.98103 12.20479 2813 ft 214 kts 165°
2026-05-05 10:03 41.96688 12.21072 2530 ft 211 kts 165°
2026-05-05 10:03 41.95293 12.21658 2250 ft 209 kts 165°
2026-05-05 10:04 41.93936 12.22229 1976 ft 196 kts 164°
2026-05-05 10:04 41.92667 12.22763 1750 ft 187 kts 164°
2026-05-05 10:04 41.91445 12.23276 1475 ft 185 kts 163°
2026-05-05 10:04 41.90235 12.23784 1224 ft 173 kts 162°
2026-05-05 10:05 41.89129 12.24247 1000 ft 165 kts 161°
2026-05-05 10:05 41.88016 12.24714 773 ft 167 kts 161°
2026-05-05 10:05 41.86930 12.25170 546 ft 161 kts 161°
2026-05-05 10:05 41.85877 12.25611 328 ft 157 kts 162°
2026-05-05 10:06 41.84817 12.26055 140 ft 155 kts 162°
2026-05-05 10:06 41.83827 12.26473 28 ft 137 kts 160°
2026-05-05 10:06 41.83147 12.26786 20 ft 73 kts 162°
2026-05-05 10:06 41.82793 12.26887 24 ft 35 kts 192°
2026-05-05 10:07 41.82620 12.26850 20 ft 24 kts 189°
2026-05-05 10:07 41.82453 12.26799 18 ft 25 kts 193°
2026-05-05 10:07 41.82281 12.26810 16 ft 25 kts 169°
2026-05-05 10:07 41.82111 12.26872 14 ft 25 kts 163°
2026-05-05 10:08 41.81950 12.26936 16 ft 24 kts 163°
2026-05-05 10:08 41.81791 12.26938 17 ft 23 kts 188°
2026-05-05 10:08 41.81651 12.26943 21 ft 18 kts 172°
2026-05-05 10:08 41.81526 12.26978 21 ft 19 kts 168°
2026-05-05 10:09 41.81395 12.27029 22 ft 20 kts 161°
2026-05-05 10:09 41.81255 12.27089 17 ft 22 kts 161°
2026-05-05 10:09 41.81106 12.27153 18 ft 23 kts 161°
2026-05-05 10:09 41.80947 12.27222 13 ft 25 kts 166°
2026-05-05 10:10 41.80789 12.27157 12 ft 25 kts 232°
2026-05-05 10:10 41.80719 12.26936 10 ft 27 kts 250°
2026-05-05 10:10 41.80653 12.26702 14 ft 27 kts 250°
2026-05-05 10:10 41.80590 12.26461 16 ft 25 kts 250°
2026-05-05 10:11 41.80528 12.26237 16 ft 27 kts 253°
2026-05-05 10:11 41.80438 12.26170 15 ft 10 kts 144°
2026-05-05 10:11 41.80387 12.26137 17 ft 9 kts 209°
2026-05-05 10:11 41.80320 12.26097 15 ft 12 kts 200°
2026-05-05 10:12 41.80237 12.26053 17 ft 14 kts 202°
2026-05-05 10:12 41.80146 12.25999 18 ft 15 kts 205°
2026-05-05 10:12 41.80049 12.25935 19 ft 16 kts 206°
2026-05-05 10:12 41.79946 12.25867 18 ft 17 kts 205°
2026-05-05 10:13 41.79844 12.25802 18 ft 16 kts 207°
2026-05-05 10:13 41.79804 12.25773 20 ft 5 kts 217°
2026-05-05 10:13 41.79775 12.25727 18 ft 7 kts 242°
2026-05-05 10:13 41.79767 12.25670 18 ft 0 kts 278°